Regional Weather Roundup
Issued by NWS

Home | Current Version | Previous Version | Graphics & Text | Print | Product List | Glossary On
Versions: 1 2 3 4 5 6 7 8 9 10 11 12 13 14 15 16 17 18 19 20 21 22 23 24 25 26 27 28 29 30 31 32 33 34 35 36 37 38 39 40 41 42 43 44 45 46 47 48 49 50
000
ASUS43 KMKX 030221
RWRWI

WISCONSIN REGIONAL WEATHER ROUNDUP
NATIONAL WEATHER SERVICE MILWAUKEE/SULLIVAN WI
900 PM CDT THU JUL 02 2015

NOTE: "FAIR" INDICATES FEW OR NO CLOUDS BELOW 12,000 FEET WITH NO
SIGNIFICANT WEATHER AND/OR OBSTRUCTIONS TO VISIBILITY.

WIZ001-002-006>008-014>016-023>028-030300-
NORTHWEST WISCONSIN

CITY           SKY/WX    TMP DP  RH WIND       PRES   REMARKS
SUPERIOR ARPT  CLEAR     68  58  71 SW5       29.94S
ASHLAND        CLEAR     67  56  67 SW7       29.95S
HAYWARD        CLEAR     65  57  75 CALM      29.98S
SIREN          CLEAR     65  55  71 CALM      29.97S
CUMBERLAND     CLEAR     64  59  82 S3        29.99R
RICE LAKE      CLEAR     65  57  75 CALM      30.00R
CHETEK         CLEAR     65  58  76 CALM      29.99R
LADYSMITH      CLEAR     65  58  76 CALM      30.01S
EAU CLAIRE     CLEAR     67  56  67 CALM      29.98R
MENOMONIE      PTCLDY    67  55  64 S5        29.98S
NEW RICHMOND   CLEAR     66  54  64 S3        29.99R
OSCEOLA        CLEAR     67  58  73 S5        30.00S
$$

WIZ003>005-009-010-017-018-030300-
NORTH CENTRAL WISCONSIN

CITY           SKY/WX    TMP DP  RH WIND       PRES   REMARKS
MANITOWISH WTR PTCLDY    64  56  76 W3        29.99R
ARBOR VITAE    PTCLDY    65  56  73 CALM      30.00R
WOODRUFF       PTCLDY    65  56  73 CALM      30.00R
RHINELANDER    PTCLDY    65  52  62 SW5       30.01S
EAGLE RIVER    PTCLDY    63  54  72 SW3       29.99S
LAND O LAKES   MOCLDY    61  57  88 CALM      30.00S
PHILLIPS       CLEAR     66  55  68 CALM      29.99S
TOMAHAWK       PTCLDY    60  54  79 CALM      30.01S HAZE
MEDFORD        PTCLDY    58  54  86 CALM      30.01S
MERRILL        PTCLDY    65  54  65 S3        30.01S
$$

WIZ029-030-035-036-043>047-030300-
CENTRAL WISCONSIN

CITY           SKY/WX    TMP DP  RH WIND       PRES   REMARKS
WAUSAU         CLEAR     66  50  56 SE6       29.99S
MOSINEE        CLEAR     64  52  63 SE3       30.02S
MARSHFIELD     CLEAR     66  50  56 S3        30.00S
STEVENS POINT  CLEAR     63  51  66 CALM      30.01S
WAUPACA        CLEAR     62  53  73 CALM      30.01R
WAUTOMA        CLEAR     64  54  70 CALM      30.01R
WISC RAPIDS    CLEAR     61  52  72 CALM      30.01S
CAMP DOUGLAS   CLEAR     58  58 100 E1        29.99S
$$

WIZ011>013-019>022-031-037>040-048>050-030300-
NORTHEAST WISCONSIN

CITY           SKY/WX    TMP DP  RH WIND       PRES   REMARKS
ANTIGO         CLEAR     58  52  80 S6        30.02S
SHAWANO        CLEAR     62  53  72 CALM      30.01S
OCONTO         CLEAR     59  55  86 CALM      30.01S
STURGEON BAY   CLEAR     57  45  62 S3        30.04S
GREEN BAY      CLEAR     64  53  67 CALM      30.01S
MANITOWOC      CLEAR     59  49  69 MISG      30.02S
APPLETON       PTCLDY    66  43  42 VRB3      30.01F
CLINTONVILLE   CLEAR     63  50  63 SE3       30.01S
OSHKOSH        CLEAR     64  48  56 CALM      29.99F
$$

WIZ032>034-041-042-053>061-030300-
SOUTHWEST WISCONSIN

CITY           SKY/WX    TMP DP  RH WIND       PRES   REMARKS
LA CROSSE      PTCLDY    68  55  63 E5        29.97S
SPARTA         PTCLDY    62  52  71 CALM      30.00S
VIROQUA        PTCLDY    63  53  68 SE5       30.00S
BOSCOBEL       MOCLDY    62  57  83 CALM      29.99R
PRAIRIE DU CHI MOCLDY    63  56  76 CALM      29.98S
PLATTEVILLE    CLOUDY    64  54  70 CALM      29.99S
$$

WIZ056-057-062-063-064-067-068-030300-
SOUTH CENTRAL WISCONSIN

CITY           SKY/WX    TMP DP  RH WIND       PRES   REMARKS
REEDSBURG      PTCLDY    63  53  71 CALM      29.99S
BARABOO/DELLS  PTCLDY    61  53  73 CALM      30.00R
LONE ROCK      MOCLDY    62  55  77 CALM      29.99S
MINERAL POINT  MOCLDY    63  52  67 NE3       29.99S
MADISON        MOCLDY    63  48  58 E8        29.99R
MIDDLETON      PTCLDY    60  54  78 CALM      30.00S
WATERTOWN      PTCLDY    60  47  64 E3        30.00R
MONROE         MOCLDY    63  46  55 NE6       29.98S
JANESVILLE     MOCLDY    63  52  67 E6        29.98R
$$

WIZ051-052-058>065-066-070>072-030300-
SOUTHEAST WISCONSIN

CITY           SKY/WX    TMP DP  RH WIND       PRES   REMARKS
MILWAUKEE      MOCLDY    57  46  66 NE5       30.01R
WAUKESHA       CLEAR     57  48  72 E6        30.01R
MILWAUKEE/TIMM CLEAR     59  43  55 NE5       30.01S
RACINE         PTCLDY    56  47  71 N6        30.02R
BURLINGTON     PTCLDY    56  49  77 E5        30.00R
KENOSHA        PTCLDY    56  48  74 NE3       30.00S
FOND DU LAC    CLEAR     63  48  58 E6        30.00S
SHEBOYGAN      CLEAR     55  46  71 E5        30.01F
WEST BEND      CLEAR     59  46  63 E3        30.01R
JUNEAU         CLEAR     61  48  62 E5        30.02R
$$

LSZ147-162-030300-
LAKE SUPERIOR

STATION/POSITION TIME  TEMP    WIND        PRES    WAVE
                       AIR SEA DIR/SP/G            HT/PER
                 (UTC) (F)     (DEG/KT/KT) (MB)    (FT/S)
W MID LAKE BUOY  0150   55 39  200/ 10/ 10 1012.9F   0
DEVILS ISLAND    0200   68     220/ 10/ 12 1013.1S
SAXON HARBOR     0100   70        CALM     1013.5F
$$

LMZ867-665-643>646-030300-
LAKE MICHIGAN

STATION/POSITION TIME  TEMP    WIND        PRES    WAVE
                       AIR SEA DIR/SP/G            HT/PER
                 (UTC) (F)     (DEG/KT/KT) (MB)    (FT/S)
CHAMBERS ISLAND  0100   65     160/  1/  3 1016.3S
N MID LAKE BUOY  0150   58 52  210/  6/  6 1016.0F   0
NORTHPORT PIER   0100   62     190/  4/  5 1015.9F
ALGOMA LAKESHORE 0140             CALM       N/A
KEWAUNEE LAKESHO 0100   62      30/  2/  4 1015.9F
SHEBOYGAN LAKESH 0200   59      20/  7/  8 1016.5F
PORT WASHINGTON  0100   63      30/  4/  7 1016.6F
ATWATER BUOY     0200   58      20/ 10/ 12 1017.2R
MILWAUKEE LAKESH 0200   59      10/  7/ 10   N/A
KENOSHA   LAKESH 0200   59      10/ 11/ 13 1015.6S
$$

TC  - TEMPERATURE IN CELSIUS
VSB - VISIBILITY IN STATUTE MILES
WCI - WIND CHILL INDEX
HX  - HEAT INDEX




USA.gov is the U.S. government's official web portal to all federal, state and local government web resources and services.